Wetterdaten: Mittwoch, 02.05.2018
Datum Zeit Temp. A. Aussen2m Boden Feuchte A. Feuchte 2 Luftdruck Regen Wind Richtung Richtung Sonnenschein
02.05.2018 00:00 10,6 C 9,3 C 10,8 C 63 % 68 % 1011,8 hPa 0,0 l/m 7,9 km/h (2 Bft) SO 140 0 min
02.05.2018 00:05 10,6 C 9,2 C 10,8 C 63 % 68 % 1010,8 hPa 0,0 l/m 7,9 km/h (2 Bft) SO 140 0 min
02.05.2018 00:10 10,6 C 9,1 C 10,8 C 63 % 69 % 1010,8 hPa 0,0 l/m 7,9 km/h (2 Bft) SO 140 0 min
02.05.2018 00:15 10,6 C 9,0 C 10,8 C 63 % 69 % 1010,8 hPa 0,0 l/m 7,9 km/h (2 Bft) SO 140 0 min
02.05.2018 00:20 10,6 C 8,9 C 10,8 C 63 % 69 % 1011,8 hPa 0,0 l/m 7,9 km/h (2 Bft) SO 140 0 min
02.05.2018 00:25 10,6 C 8,8 C 10,8 C 63 % 70 % 1011,8 hPa 0,0 l/m 7,9 km/h (2 Bft) SO 140 0 min
02.05.2018 00:30 10,6 C 8,8 C 10,8 C 63 % 70 % 1011,8 hPa 0,0 l/m 7,9 km/h (2 Bft) SO 140 0 min
02.05.2018 00:35 10,6 C 8,5 C 10,8 C 63 % 71 % 1010,8 hPa 0,0 l/m 7,9 km/h (2 Bft) SO 140 0 min
02.05.2018 00:40 10,6 C 8,3 C 10,8 C 63 % 72 % 1010,8 hPa 0,0 l/m 7,9 km/h (2 Bft) SO 140 0 min
02.05.2018 00:45 10,6 C 8,0 C 10,8 C 63 % 73 % 1010,8 hPa 0,0 l/m 7,9 km/h (2 Bft) SO 140 0 min
02.05.2018 00:50 10,6 C 7,8 C 10,8 C 63 % 74 % 1010,8 hPa 0,0 l/m 7,9 km/h (2 Bft) SO 140 0 min
02.05.2018 00:55 10,6 C 7,8 C 10,8 C 63 % 74 % 1010,8 hPa 0,0 l/m 7,9 km/h (2 Bft) SO 140 0 min
02.05.2018 01:00 10,6 C 7,7 C 10,8 C 63 % 74 % 1010,8 hPa 0,0 l/m 7,9 km/h (2 Bft) SO 140 0 min
02.05.2018 01:05 10,6 C 7,6 C 10,8 C 63 % 75 % 1011,8 hPa 0,0 l/m 7,9 km/h (2 Bft) SO 140 0 min
02.05.2018 01:10 10,6 C 7,5 C 10,8 C 63 % 75 % 1011,8 hPa 0,0 l/m 7,9 km/h (2 Bft) SO 140 0 min
02.05.2018 01:15 10,6 C 7,4 C 10,8 C 63 % 76 % 1011,8 hPa 0,0 l/m 7,9 km/h (2 Bft) SO 140 0 min
02.05.2018 01:20 10,6 C 7,3 C 10,8 C 63 % 76 % 1011,8 hPa 0,0 l/m 7,9 km/h (2 Bft) SO 140 0 min
02.05.2018 01:25 10,6 C 7,3 C 10,8 C 63 % 76 % 1011,8 hPa 0,0 l/m 7,9 km/h (2 Bft) SO 140 0 min
02.05.2018 01:30 10,6 C 7,2 C 10,8 C 63 % 76 % 1011,8 hPa 0,0 l/m 7,9 km/h (2 Bft) SO 140 0 min
02.05.2018 01:35 10,6 C 7,1 C 10,8 C 63 % 76 % 1011,8 hPa 0,0 l/m 7,9 km/h (2 Bft) SO 140 0 min
02.05.2018 01:40 10,6 C 7,1 C 10,8 C 63 % 76 % 1011,8 hPa 0,0 l/m 7,9 km/h (2 Bft) SO 140 0 min
02.05.2018 01:45 10,6 C 7,1 C 10,8 C 63 % 77 % 1011,8 hPa 0,0 l/m 7,9 km/h (2 Bft) SO 140 0 min
02.05.2018 01:50 10,6 C 7,1 C 10,8 C 63 % 77 % 1011,8 hPa 0,0 l/m 7,9 km/h (2 Bft) SO 140 0 min
02.05.2018 01:55 10,6 C 7,1 C 10,8 C 63 % 77 % 1011,8 hPa 0,0 l/m 7,9 km/h (2 Bft) SO 140 0 min
02.05.2018 02:00 10,6 C 7,1 C 10,8 C 63 % 77 % 1011,8 hPa 0,0 l/m 7,9 km/h (2 Bft) SO 140 0 min
02.05.2018 02:05 10,6 C 7,1 C 10,8 C 63 % 77 % 1010,8 hPa 0,0 l/m 7,9 km/h (2 Bft) SO 140 0 min
02.05.2018 02:10 10,6 C 7,1 C 10,8 C 63 % 77 % 1010,8 hPa 0,0 l/m 7,9 km/h (2 Bft) SO 140 0 min
02.05.2018 02:15 10,6 C 7,0 C 10,8 C 63 % 77 % 1010,8 hPa 0,0 l/m 7,9 km/h (2 Bft) SO 140 0 min
02.05.2018 02:20 10,6 C 7,0 C 10,8 C 63 % 77 % 1010,8 hPa 0,0 l/m 7,9 km/h (2 Bft) SO 140 0 min
02.05.2018 02:25 10,6 C 7,0 C 10,8 C 63 % 77 % 1010,8 hPa 0,0 l/m 7,9 km/h (2 Bft) SO 140 0 min
02.05.2018 02:30 10,6 C 6,9 C 10,8 C 63 % 78 % 1010,8 hPa 0,0 l/m 7,9 km/h (2 Bft) SO 140 0 min
02.05.2018 02:35 10,6 C 6,7 C 10,8 C 63 % 79 % 1011,8 hPa 0,0 l/m 7,9 km/h (2 Bft) SO 140 0 min
02.05.2018 02:40 10,6 C 6,6 C 10,8 C 63 % 79 % 1011,8 hPa 0,0 l/m 7,9 km/h (2 Bft) SO 140 0 min
02.05.2018 02:45 10,6 C 6,3 C 10,8 C 63 % 80 % 1011,8 hPa 0,0 l/m 7,9 km/h (2 Bft) SO 140 0 min
02.05.2018 02:50 10,6 C 6,2 C 10,8 C 63 % 80 % 1010,8 hPa 0,0 l/m 7,9 km/h (2 Bft) SO 140 0 min
02.05.2018 02:55 10,6 C 6,1 C 10,8 C 63 % 80 % 1010,8 hPa 0,0 l/m 7,9 km/h (2 Bft) SO 140 0 min
02.05.2018 03:00 10,6 C 6,0 C 10,8 C 63 % 81 % 1010,8 hPa 0,0 l/m 7,9 km/h (2 Bft) SO 140 0 min
02.05.2018 03:05 10,6 C 5,9 C 10,8 C 63 % 81 % 1011,8 hPa 0,0 l/m 7,9 km/h (2 Bft) SO 140 0 min
02.05.2018 03:10 10,6 C 5,9 C 10,8 C 63 % 81 % 1011,8 hPa 0,0 l/m 7,9 km/h (2 Bft) SO 140 0 min
02.05.2018 03:15 10,6 C 5,9 C 10,8 C 63 % 81 % 1011,8 hPa 0,0 l/m 7,9 km/h (2 Bft) SO 140 0 min
02.05.2018 03:20 10,6 C 5,9 C 10,8 C 63 % 81 % 1011,8 hPa 0,0 l/m 7,9 km/h (2 Bft) SO 140 0 min
02.05.2018 03:25 10,6 C 5,8 C 10,8 C 63 % 81 % 1011,8 hPa 0,0 l/m 7,9 km/h (2 Bft) SO 140 0 min
02.05.2018 03:30 10,6 C 5,8 C 10,8 C 63 % 82 % 1011,8 hPa 0,0 l/m 7,9 km/h (2 Bft) SO 140 0 min
02.05.2018 03:35 10,6 C 5,8 C 10,8 C 63 % 82 % 1011,8 hPa 0,0 l/m 7,9 km/h (2 Bft) SO 140 0 min
02.05.2018 03:40 10,6 C 5,7 C 10,8 C 63 % 82 % 1011,8 hPa 0,0 l/m 7,9 km/h (2 Bft) SO 140 0 min
02.05.2018 03:45 10,6 C 5,7 C 10,8 C 63 % 82 % 1011,8 hPa 0,0 l/m 7,9 km/h (2 Bft) SO 140 0 min
02.05.2018 03:50 10,6 C 5,6 C 10,8 C 63 % 82 % 1010,8 hPa 0,0 l/m 7,9 km/h (2 Bft) SO 140 0 min
02.05.2018 03:55 10,6 C 5,6 C 10,8 C 63 % 82 % 1010,8 hPa 0,0 l/m 7,9 km/h (2 Bft) SO 140 0 min
02.05.2018 04:00 10,6 C 5,6 C 10,8 C 63 % 83 % 1010,8 hPa 0,0 l/m 7,9 km/h (2 Bft) SO 140 0 min
02.05.2018 04:05 10,6 C 5,6 C 10,8 C 63 % 83 % 1011,8 hPa 0,0 l/m 7,9 km/h (2 Bft) SO 140 0 min
02.05.2018 04:10 10,6 C 5,6 C 10,8 C 63 % 83 % 1011,8 hPa 0,0 l/m 7,9 km/h (2 Bft) SO 140 0 min
02.05.2018 04:15 10,6 C 5,6 C 10,8 C 63 % 83 % 1011,8 hPa 0,0 l/m 7,9 km/h (2 Bft) SO 140 0 min
02.05.2018 04:20 10,6 C 5,5 C 10,8 C 63 % 83 % 1010,8 hPa 0,0 l/m 7,9 km/h (2 Bft) SO 140 0 min
02.05.2018 04:25 10,6 C 5,5 C 10,8 C 63 % 83 % 1010,8 hPa 0,0 l/m 7,9 km/h (2 Bft) SO 140 0 min
02.05.2018 04:30 10,6 C 5,4 C 10,8 C 63 % 83 % 1010,8 hPa 0,0 l/m 7,9 km/h (2 Bft) SO 140 0 min
02.05.2018 04:35 10,6 C 5,3 C 10,8 C 63 % 83 % 1010,8 hPa 0,0 l/m 7,9 km/h (2 Bft) SO 140 0 min
02.05.2018 04:40 10,6 C 5,3 C 10,8 C 63 % 83 % 1010,8 hPa 0,0 l/m 7,9 km/h (2 Bft) SO 140 0 min
02.05.2018 04:45 10,6 C 5,3 C 10,8 C 63 % 83 % 1010,8 hPa 0,0 l/m 7,9 km/h (2 Bft) SO 140 0 min
02.05.2018 04:50 10,6 C 5,3 C 10,8 C 63 % 83 % 1010,8 hPa 0,0 l/m 7,9 km/h (2 Bft) SO 140 0 min
02.05.2018 04:55 10,6 C 5,3 C 10,8 C 63 % 83 % 1010,8 hPa 0,0 l/m 7,9 km/h (2 Bft) SO 140 0 min
02.05.2018 05:00 10,6 C 5,2 C 10,8 C 63 % 83 % 1010,8 hPa 0,0 l/m 7,9 km/h (2 Bft) SO 140 0 min
02.05.2018 05:05 10,6 C 5,3 C 10,8 C 63 % 83 % 1010,8 hPa 0,0 l/m 7,9 km/h (2 Bft) SO 140 0 min
02.05.2018 05:10 10,6 C 5,3 C 10,8 C 63 % 83 % 1010,8 hPa 0,0 l/m 7,9 km/h (2 Bft) SO 140 0 min
02.05.2018 05:15 10,6 C 5,3 C 10,8 C 63 % 83 % 1010,8 hPa 0,0 l/m 7,9 km/h (2 Bft) SO 140 0 min
02.05.2018 05:20 10,6 C 5,3 C 10,8 C 63 % 83 % 1010,8 hPa 0,0 l/m 7,9 km/h (2 Bft) SO 140 0 min
02.05.2018 05:25 10,6 C 5,3 C 10,8 C 63 % 83 % 1010,8 hPa 0,0 l/m 7,9 km/h (2 Bft) SO 140 0 min
02.05.2018 05:30 10,6 C 5,3 C 10,8 C 63 % 83 % 1010,8 hPa 0,0 l/m 7,9 km/h (2 Bft) SO 140 0 min
02.05.2018 05:35 5,3 C 5,3 C 10,8 C 84 % 83 % 1010,8 hPa 0,0 l/m 3,6 km/h (1 Bft) S-SO 165 0 min
02.05.2018 05:40 5,3 C 5,3 C 10,8 C 84 % 83 % 1010,8 hPa 0,0 l/m 3,6 km/h (1 Bft) S-SO 165 0 min
02.05.2018 05:45 5,3 C 5,3 C 10,8 C 84 % 83 % 1010,8 hPa 0,0 l/m 3,6 km/h (1 Bft) S-SO 165 0 min
02.05.2018 05:50 5,3 C 5,3 C 10,8 C 84 % 83 % 1011,8 hPa 0,0 l/m 3,6 km/h (1 Bft) S-SO 165 0 min
02.05.2018 05:55 5,3 C 5,3 C 10,8 C 84 % 83 % 1011,8 hPa 0,0 l/m 3,6 km/h (1 Bft) S-SO 165 0 min
02.05.2018 06:00 5,2 C 5,2 C 10,8 C 84 % 83 % 1011,8 hPa 0,0 l/m 3,0 km/h (1 Bft) S 175 0 min
02.05.2018 06:05 5,2 C 5,2 C 10,8 C 84 % 83 % 1009,8 hPa 0,0 l/m 3,0 km/h (1 Bft) S 175 0 min
02.05.2018 06:10 5,1 C 5,2 C 10,8 C 84 % 83 % 1009,8 hPa 0,0 l/m 4,8 km/h (1 Bft) S-SO 155 0 min
02.05.2018 06:15 5,1 C 5,1 C 10,8 C 85 % 84 % 1009,8 hPa 0,0 l/m 3,6 km/h (1 Bft) S-SO 155 0 min
02.05.2018 06:20 5,2 C 5,2 C 10,8 C 85 % 84 % 1010,8 hPa 0,0 l/m 6,1 km/h (2 Bft) SO 145 0 min
02.05.2018 06:25 5,2 C 5,2 C 10,8 C 85 % 84 % 1010,8 hPa 0,0 l/m 3,6 km/h (1 Bft) SO 145 0 min
02.05.2018 06:30 5,2 C 5,3 C 10,8 C 85 % 84 % 1010,8 hPa 0,0 l/m 5,4 km/h (2 Bft) SO 145 0 min
02.05.2018 06:35 5,4 C 5,3 C 10,8 C 84 % 84 % 1010,8 hPa 0,0 l/m 4,8 km/h (1 Bft) SO 125 0 min
02.05.2018 06:40 5,3 C 5,3 C 10,8 C 84 % 84 % 1010,8 hPa 0,0 l/m 3,6 km/h (1 Bft) O 100 0 min
02.05.2018 06:45 5,4 C 5,4 C 10,8 C 84 % 84 % 1010,8 hPa 0,0 l/m 3,6 km/h (1 Bft) SO 145 0 min
02.05.2018 06:50 5,5 C 5,4 C 10,8 C 84 % 84 % 1010,8 hPa 0,0 l/m 3,6 km/h (1 Bft) SO 140 0 min
02.05.2018 06:55 5,5 C 5,5 C 10,8 C 84 % 84 % 1010,8 hPa 0,0 l/m 3,6 km/h (1 Bft) SO 140 0 min
02.05.2018 07:00 5,8 C 5,6 C 10,8 C 83 % 84 % 1010,8 hPa 0,0 l/m 7,9 km/h (2 Bft) O 95 0 min
02.05.2018 07:05 5,9 C 5,7 C 10,8 C 83 % 83 % 1010,8 hPa 0,0 l/m 10,3 km/h (2 Bft) S 175 0 min
02.05.2018 07:10 6,0 C 5,7 C 10,8 C 82 % 83 % 1010,8 hPa 0,0 l/m 6,7 km/h (2 Bft) S-SO 165 0 min
02.05.2018 07:15 6,2 C 5,8 C 10,8 C 82 % 83 % 1010,8 hPa 0,0 l/m 5,4 km/h (2 Bft) SW 225 0 min
02.05.2018 07:20 6,4 C 5,8 C 10,8 C 81 % 83 % 1010,8 hPa 0,0 l/m 4,8 km/h (1 Bft) SO 130 0 min
02.05.2018 07:25 6,5 C 6,0 C 10,8 C 81 % 83 % 1010,8 hPa 0,0 l/m 3,6 km/h (1 Bft) S-SO 155 2 min
02.05.2018 07:30 6,6 C 6,1 C 10,8 C 80 % 83 % 1010,8 hPa 0,0 l/m 10,3 km/h (2 Bft) SO 145 2 min
02.05.2018 07:35 6,6 C 6,2 C 10,8 C 80 % 82 % 1010,8 hPa 0,0 l/m 10,3 km/h (2 Bft) SO 145 0 min
02.05.2018 07:40 6,8 C 6,5 C 10,8 C 80 % 82 % 1010,8 hPa 0,0 l/m 8,5 km/h (2 Bft) S 185 9 min
02.05.2018 07:45 7,0 C 6,7 C 10,8 C 79 % 82 % 1010,8 hPa 0,0 l/m 7,3 km/h (2 Bft) S 185 5 min
02.05.2018 07:50 7,1 C 6,9 C 10,8 C 78 % 81 % 1010,8 hPa 0,0 l/m 12,1 km/h (2 Bft) S 185 5 min
02.05.2018 07:55 7,2 C 7,0 C 10,8 C 78 % 80 % 1010,8 hPa 0,0 l/m 9,7 km/h (2 Bft) O-SO 120 5 min
02.05.2018 08:00 7,3 C 7,2 C 10,8 C 77 % 80 % 1010,8 hPa 0,0 l/m 9,7 km/h (2 Bft) SO 135 4 min
02.05.2018 08:05 7,5 C 7,4 C 10,8 C 77 % 79 % 1010,8 hPa 0,0 l/m 15,7 km/h (3 Bft) S 170 6 min
02.05.2018 08:10 7,6 C 7,6 C 10,8 C 76 % 78 % 1010,8 hPa 0,0 l/m 15,7 km/h (3 Bft) SO 135 4 min
02.05.2018 08:15 7,8 C 7,7 C 10,8 C 76 % 78 % 1010,8 hPa 0,0 l/m 15,7 km/h (3 Bft) S-SO 160 1 min
02.05.2018 08:20 8,0 C 7,8 C 10,8 C 76 % 78 % 1010,8 hPa 0,0 l/m 12,1 km/h (2 Bft) S 175 0 min
02.05.2018 08:25 8,1 C 8,0 C 10,8 C 75 % 77 % 1010,8 hPa 0,0 l/m 15,1 km/h (3 Bft) S-SO 150 3 min
02.05.2018 08:30 8,4 C 8,2 C 10,8 C 75 % 77 % 1010,8 hPa 0,0 l/m 14,5 km/h (3 Bft) O-SO 110 4 min
02.05.2018 08:35 8,6 C 8,4 C 10,8 C 73 % 76 % 1011,8 hPa 0,0 l/m 24,8 km/h (4 Bft) S 175 5 min
02.05.2018 08:40 8,6 C 8,5 C 10,8 C 73 % 75 % 1011,8 hPa 0,0 l/m 20,6 km/h (4 Bft) S-SO 165 6 min
02.05.2018 08:45 8,6 C 8,7 C 10,8 C 73 % 75 % 1011,8 hPa 0,0 l/m 20,6 km/h (4 Bft) S-SO 165 0 min
02.05.2018 08:50 8,6 C 8,9 C 10,8 C 73 % 75 % 1010,8 hPa 0,0 l/m 20,6 km/h (4 Bft) S-SO 165 0 min
02.05.2018 08:55 9,1 C 9,1 C 10,8 C 71 % 74 % 1010,8 hPa 0,0 l/m 17,6 km/h (3 Bft) S-SO 160 10 min
02.05.2018 09:00 9,3 C 9,3 C 10,8 C 71 % 73 % 1010,8 hPa 0,0 l/m 12,7 km/h (3 Bft) S-SO 150 7 min
02.05.2018 09:05 9,3 C 9,5 C 10,8 C 71 % 73 % 1011,8 hPa 0,0 l/m 12,7 km/h (3 Bft) S-SO 150 0 min
02.05.2018 09:10 9,3 C 9,8 C 10,8 C 71 % 72 % 1011,8 hPa 0,0 l/m 12,7 km/h (3 Bft) S-SO 150 0 min
02.05.2018 09:15 9,3 C 9,9 C 10,8 C 71 % 71 % 1011,8 hPa 0,0 l/m 12,7 km/h (3 Bft) S-SO 150 0 min
02.05.2018 09:20 9,3 C 10,0 C 10,8 C 71 % 71 % 1010,8 hPa 0,0 l/m 12,7 km/h (3 Bft) S-SO 150 0 min
02.05.2018 09:25 9,3 C 10,2 C 10,8 C 71 % 70 % 1010,8 hPa 0,0 l/m 12,7 km/h (3 Bft) S-SO 150 0 min
02.05.2018 09:30 10,4 C 10,4 C 10,8 C 67 % 70 % 1010,8 hPa 0,0 l/m 12,1 km/h (2 Bft) SO 140 30 min
02.05.2018 09:35 10,8 C 10,7 C 10,8 C 66 % 69 % 1011,8 hPa 0,0 l/m 13,3 km/h (3 Bft) S 170 6 min
02.05.2018 09:40 10,8 C 10,9 C 10,8 C 66 % 69 % 1011,8 hPa 0,0 l/m 13,3 km/h (3 Bft) S 170 0 min
02.05.2018 09:45 10,8 C 11,2 C 10,8 C 66 % 68 % 1011,8 hPa 0,0 l/m 13,3 km/h (3 Bft) S 170 0 min
02.05.2018 09:50 11,4 C 11,4 C 10,8 C 63 % 67 % 1010,8 hPa 0,0 l/m 14,5 km/h (3 Bft) S-SW 210 15 min
02.05.2018 09:55 11,4 C 11,6 C 10,8 C 63 % 65 % 1010,8 hPa 0,0 l/m 14,5 km/h (3 Bft) S-SW 210 0 min
02.05.2018 10:00 11,8 C 11,8 C 10,8 C 60 % 65 % 1010,7 hPa 0,0 l/m 16,9 km/h (3 Bft) S-SO 155 10 min
02.05.2018 10:05 11,9 C 12,1 C 10,8 C 60 % 64 % 1011,7 hPa 0,0 l/m 16,9 km/h (3 Bft) S-SO 150 2 min
02.05.2018 10:10 12,2 C 12,2 C 10,8 C 61 % 64 % 1011,7 hPa 0,0 l/m 14,5 km/h (3 Bft) S-SW 205 9 min
02.05.2018 10:15 12,1 C 12,3 C 10,8 C 59 % 63 % 1011,7 hPa 0,0 l/m 18,8 km/h (3 Bft) S-SO 150 4 min
02.05.2018 10:20 12,6 C 12,6 C 10,8 C 59 % 63 % 1010,7 hPa 0,0 l/m 13,3 km/h (3 Bft) S 175 6 min
02.05.2018 10:25 12,5 C 12,8 C 10,8 C 58 % 62 % 1010,7 hPa 0,0 l/m 17,6 km/h (3 Bft) SO 130 4 min
02.05.2018 10:30 12,7 C 13,0 C 10,8 C 57 % 61 % 1010,7 hPa 0,0 l/m 18,8 km/h (3 Bft) S 190 6 min
02.05.2018 10:35 12,9 C 13,2 C 10,8 C 55 % 59 % 1010,7 hPa 0,0 l/m 25,4 km/h (4 Bft) SO 135 5 min
02.05.2018 10:40 12,9 C 13,2 C 10,8 C 55 % 60 % 1010,7 hPa 0,0 l/m 25,4 km/h (4 Bft) S-SO 165 2 min
02.05.2018 10:45 13,3 C 13,4 C 10,8 C 57 % 60 % 1010,7 hPa 0,0 l/m 17,6 km/h (3 Bft) SO 135 8 min
02.05.2018 10:50 12,9 C 13,5 C 10,8 C 56 % 60 % 1011,7 hPa 0,0 l/m 16,3 km/h (3 Bft) SO 140 5 min
02.05.2018 10:55 13,7 C 13,6 C 10,8 C 57 % 61 % 1011,7 hPa 0,0 l/m 15,7 km/h (3 Bft) SO 140 5 min
02.05.2018 11:00 13,9 C 13,9 C 10,8 C 56 % 61 % 1011,7 hPa 0,0 l/m 11,5 km/h (2 Bft) S-SO 160 4 min
02.05.2018 11:05 13,7 C 14,0 C 10,8 C 53 % 58 % 1010,7 hPa 0,0 l/m 16,9 km/h (3 Bft) S 180 6 min
02.05.2018 11:10 14,0 C 14,2 C 10,8 C 53 % 58 % 1010,7 hPa 0,0 l/m 20,6 km/h (4 Bft) W-SW 240 4 min
02.05.2018 11:15 13,6 C 14,0 C 10,8 C 54 % 57 % 1010,7 hPa 0,0 l/m 18,8 km/h (3 Bft) S-SW 205 6 min
02.05.2018 11:20 14,0 C 14,1 C 10,8 C 53 % 57 % 1010,7 hPa 0,0 l/m 22,4 km/h (4 Bft) S 175 5 min
02.05.2018 11:25 14,2 C 14,5 C 10,8 C 51 % 56 % 1010,7 hPa 0,0 l/m 19,4 km/h (3 Bft) S-SO 160 3 min
02.05.2018 11:30 14,3 C 14,7 C 10,8 C 51 % 56 % 1010,7 hPa 0,0 l/m 20,0 km/h (4 Bft) SO 140 8 min
02.05.2018 11:35 14,6 C 14,8 C 10,8 C 51 % 55 % 1010,7 hPa 0,0 l/m 20,6 km/h (4 Bft) S-SW 200 2 min
02.05.2018 11:40 14,5 C 15,0 C 10,8 C 49 % 55 % 1010,7 hPa 0,0 l/m 23,0 km/h (4 Bft) S 180 5 min
02.05.2018 11:45 14,6 C 15,2 C 10,8 C 51 % 54 % 1010,7 hPa 0,0 l/m 20,6 km/h (4 Bft) W 275 5 min
02.05.2018 11:50 14,6 C 15,3 C 10,8 C 47 % 52 % 1009,7 hPa 0,0 l/m 24,8 km/h (4 Bft) S-SO 165 6 min
02.05.2018 11:55 14,9 C 15,5 C 10,8 C 47 % 52 % 1009,7 hPa 0,0 l/m 15,7 km/h (3 Bft) S 185 5 min
02.05.2018 12:00 15,0 C 15,6 C 10,8 C 46 % 50 % 1009,7 hPa 0,0 l/m 21,2 km/h (4 Bft) W-SW 255 5 min
02.05.2018 12:05 15,0 C 15,6 C 10,8 C 50 % 55 % 1009,7 hPa 0,0 l/m 15,1 km/h (3 Bft) S 180 5 min
02.05.2018 12:10 14,4 C 15,3 C 10,8 C 50 % 53 % 1009,7 hPa 0,0 l/m 12,1 km/h (2 Bft) S-SW 205 5 min
02.05.2018 12:15 14,1 C 15,1 C 10,8 C 50 % 52 % 1009,7 hPa 0,0 l/m 19,4 km/h (3 Bft) S-SW 195 5 min
02.05.2018 12:20 14,5 C 15,2 C 10,8 C 51 % 54 % 1010,7 hPa 0,0 l/m 13,3 km/h (3 Bft) O-NO 65 5 min
02.05.2018 12:25 14,7 C 15,6 C 10,8 C 50 % 53 % 1010,7 hPa 0,0 l/m 21,8 km/h (4 Bft) S 185 5 min
02.05.2018 12:30 15,1 C 15,6 C 10,8 C 51 % 54 % 1010,7 hPa 0,0 l/m 28,2 km/h (5 Bft) S 170 5 min
02.05.2018 12:35 15,0 C 15,6 C 10,8 C 51 % 54 % 1009,7 hPa 0,0 l/m 18,2 km/h (3 Bft) S 175 5 min
02.05.2018 12:40 15,1 C 15,8 C 10,8 C 51 % 54 % 1009,7 hPa 0,0 l/m 23,0 km/h (4 Bft) S-SW 205 5 min
02.05.2018 12:45 15,3 C 15,9 C 10,8 C 50 % 53 % 1009,7 hPa 0,0 l/m 28,6 km/h (5 Bft) S 170 5 min
02.05.2018 12:50 14,9 C 16,0 C 10,8 C 50 % 53 % 1009,7 hPa 0,0 l/m 25,4 km/h (4 Bft) S 170 5 min
02.05.2018 12:55 15,1 C 16,0 C 10,8 C 50 % 53 % 1009,7 hPa 0,0 l/m 15,7 km/h (3 Bft) SW 215 5 min
02.05.2018 13:00 15,4 C 16,2 C 10,8 C 49 % 52 % 1009,7 hPa 0,0 l/m 24,8 km/h (4 Bft) S 185 5 min
02.05.2018 13:05 15,6 C 16,3 C 10,8 C 48 % 50 % 1009,7 hPa 0,0 l/m 26,3 km/h (4 Bft) SO 135 5 min
02.05.2018 13:10 15,2 C 16,2 C 10,8 C 49 % 52 % 1009,7 hPa 0,0 l/m 21,2 km/h (4 Bft) S-SO 150 5 min
02.05.2018 13:15 15,5 C 16,4 C 10,8 C 50 % 53 % 1009,7 hPa 0,0 l/m 20,0 km/h (4 Bft) SW 215 5 min
02.05.2018 13:20 15,4 C 16,5 C 10,8 C 50 % 51 % 1008,7 hPa 0,0 l/m 19,4 km/h (3 Bft) W-SW 255 5 min
02.05.2018 13:25 15,6 C 16,6 C 10,8 C 50 % 54 % 1008,7 hPa 0,0 l/m 14,5 km/h (3 Bft) S 180 5 min
02.05.2018 13:30 16,0 C 16,9 C 10,8 C 47 % 51 % 1008,7 hPa 0,0 l/m 25,4 km/h (4 Bft) S 175 5 min
02.05.2018 13:35 16,1 C 16,8 C 10,8 C 46 % 49 % 1009,7 hPa 0,0 l/m 13,3 km/h (3 Bft) S-SW 205 4 min
02.05.2018 13:40 16,0 C 16,9 C 10,8 C 49 % 51 % 1009,7 hPa 0,0 l/m 21,2 km/h (4 Bft) S 190 6 min
02.05.2018 13:45 15,8 C 17,1 C 10,8 C 48 % 49 % 1009,7 hPa 0,0 l/m 17,6 km/h (3 Bft) S-SW 195 4 min
02.05.2018 13:50 16,0 C 17,0 C 10,8 C 47 % 51 % 1008,7 hPa 0,0 l/m 20,0 km/h (4 Bft) W-SW 255 6 min
02.05.2018 13:55 16,5 C 17,1 C 10,8 C 49 % 52 % 1008,7 hPa 0,0 l/m 9,1 km/h (2 Bft) SW 220 4 min
02.05.2018 14:00 16,5 C 17,2 C 10,8 C 44 % 48 % 1008,7 hPa 0,0 l/m 20,6 km/h (4 Bft) S 190 6 min
02.05.2018 14:05 16,6 C 17,4 C 10,8 C 46 % 48 % 1008,7 hPa 0,0 l/m 19,4 km/h (3 Bft) W-SW 240 5 min
02.05.2018 14:10 16,6 C 17,4 C 10,8 C 44 % 48 % 1008,7 hPa 0,0 l/m 21,8 km/h (4 Bft) S-SO 155 2 min
02.05.2018 14:15 16,9 C 17,7 C 10,8 C 43 % 46 % 1008,7 hPa 0,0 l/m 19,4 km/h (3 Bft) S 190 8 min
02.05.2018 14:20 17,0 C 17,7 C 10,8 C 44 % 46 % 1009,7 hPa 0,0 l/m 20,0 km/h (4 Bft) S 190 5 min
02.05.2018 14:25 17,0 C 17,8 C 10,8 C 44 % 48 % 1009,7 hPa 0,0 l/m 25,4 km/h (4 Bft) S-SO 160 5 min
02.05.2018 14:30 16,8 C 17,8 C 10,8 C 44 % 51 % 1009,7 hPa 0,0 l/m 20,6 km/h (4 Bft) W-SW 245 2 min
02.05.2018 14:35 17,3 C 17,8 C 10,8 C 43 % 47 % 1008,7 hPa 0,0 l/m 18,2 km/h (3 Bft) S 185 8 min
02.05.2018 14:40 17,3 C 18,1 C 10,8 C 43 % 47 % 1008,7 hPa 0,0 l/m 18,2 km/h (3 Bft) S 185 0 min
02.05.2018 14:45 17,0 C 18,0 C 10,8 C 45 % 46 % 1008,7 hPa 0,0 l/m 21,8 km/h (4 Bft) W-SW 240 7 min
02.05.2018 14:50 17,1 C 18,0 C 10,8 C 44 % 46 % 1008,7 hPa 0,0 l/m 15,7 km/h (3 Bft) S 185 8 min
02.05.2018 14:55 17,0 C 17,8 C 10,8 C 43 % 44 % 1008,7 hPa 0,0 l/m 20,6 km/h (4 Bft) O-SO 120 6 min
02.05.2018 15:00 17,6 C 18,0 C 10,8 C 44 % 46 % 1008,7 hPa 0,0 l/m 25,4 km/h (4 Bft) S 175 4 min
02.05.2018 15:05 17,6 C 18,1 C 10,8 C 44 % 44 % 1007,7 hPa 0,0 l/m 25,4 km/h (4 Bft) S 175 0 min
02.05.2018 15:10 17,6 C 18,0 C 10,8 C 44 % 45 % 1007,7 hPa 0,0 l/m 25,4 km/h (4 Bft) S 175 0 min
02.05.2018 15:15 17,6 C 18,3 C 10,8 C 44 % 45 % 1007,7 hPa 0,0 l/m 25,4 km/h (4 Bft) S 175 0 min
02.05.2018 15:20 17,3 C 18,3 C 10,8 C 43 % 45 % 1007,7 hPa 0,0 l/m 13,3 km/h (3 Bft) S-SO 165 18 min
02.05.2018 15:25 17,5 C 18,3 C 10,8 C 43 % 44 % 1007,7 hPa 0,0 l/m 15,7 km/h (3 Bft) SW 220 6 min
02.05.2018 15:30 17,5 C 18,3 C 10,8 C 43 % 45 % 1007,7 hPa 0,0 l/m 15,7 km/h (3 Bft) SW 220 0 min
02.05.2018 15:35 17,7 C 18,5 C 10,8 C 45 % 45 % 1007,7 hPa 0,0 l/m 16,9 km/h (3 Bft) W 275 7 min
02.05.2018 15:40 17,6 C 18,5 C 10,8 C 45 % 46 % 1007,7 hPa 0,0 l/m 19,4 km/h (3 Bft) W-SW 250 6 min
02.05.2018 15:45 17,6 C 18,4 C 10,8 C 45 % 49 % 1007,7 hPa 0,0 l/m 19,4 km/h (3 Bft) W-SW 250 0 min
02.05.2018 15:50 17,6 C 18,5 C 10,8 C 45 % 47 % 1007,7 hPa 0,0 l/m 19,4 km/h (3 Bft) W-SW 250 0 min
02.05.2018 15:55 17,6 C 18,6 C 10,8 C 45 % 47 % 1007,7 hPa 0,0 l/m 19,4 km/h (3 Bft) W-SW 250 0 min
02.05.2018 16:00 17,8 C 18,5 C 10,8 C 46 % 49 % 1007,7 hPa 0,0 l/m 16,3 km/h (3 Bft) W-NW 295 19 min
02.05.2018 16:05 17,9 C 18,6 C 10,8 C 44 % 45 % 1007,7 hPa 0,0 l/m 27,8 km/h (5 Bft) S-SW 210 6 min
02.05.2018 16:10 17,7 C 18,6 C 10,8 C 44 % 45 % 1007,7 hPa 0,0 l/m 16,3 km/h (3 Bft) S 190 6 min
02.05.2018 16:15 17,7 C 18,6 C 10,8 C 44 % 49 % 1007,7 hPa 0,0 l/m 16,3 km/h (3 Bft) S 190 0 min
02.05.2018 16:20 17,7 C 18,6 C 10,8 C 44 % 49 % 1006,6 hPa 0,0 l/m 16,3 km/h (3 Bft) S 190 0 min
02.05.2018 16:25 17,7 C 18,5 C 10,8 C 44 % 48 % 1006,6 hPa 0,0 l/m 16,3 km/h (3 Bft) S 190 0 min
02.05.2018 16:30 17,7 C 18,6 C 10,8 C 43 % 45 % 1006,6 hPa 0,0 l/m 26,3 km/h (4 Bft) S 170 18 min
02.05.2018 16:35 17,7 C 18,6 C 10,8 C 43 % 45 % 1007,7 hPa 0,0 l/m 26,3 km/h (4 Bft) S 170 0 min
02.05.2018 16:40 17,7 C 18,8 C 10,8 C 43 % 44 % 1007,6 hPa 0,0 l/m 26,3 km/h (4 Bft) S 170 0 min
02.05.2018 16:45 17,7 C 18,7 C 10,8 C 43 % 43 % 1007,7 hPa 0,0 l/m 26,3 km/h (4 Bft) S 170 0 min
02.05.2018 16:50 17,7 C 18,8 C 10,8 C 43 % 44 % 1006,6 hPa 0,0 l/m 26,3 km/h (4 Bft) S 170 0 min
02.05.2018 16:55 17,7 C 18,7 C 10,8 C 43 % 46 % 1006,6 hPa 0,0 l/m 26,3 km/h (4 Bft) S 170 0 min
02.05.2018 17:00 17,6 C 18,6 C 10,8 C 43 % 46 % 1006,6 hPa 0,0 l/m 20,0 km/h (4 Bft) S-SO 165 29 min
02.05.2018 17:05 17,6 C 18,9 C 10,8 C 43 % 45 % 1006,6 hPa 0,0 l/m 20,0 km/h (4 Bft) S-SO 165 0 min
02.05.2018 17:10 18,4 C 19,0 C 10,8 C 41 % 43 % 1006,6 hPa 0,0 l/m 25,4 km/h (4 Bft) S-SO 150 12 min
02.05.2018 17:15 18,4 C 19,0 C 10,8 C 41 % 44 % 1006,6 hPa 0,0 l/m 25,4 km/h (4 Bft) S-SO 150 0 min
02.05.2018 17:20 18,4 C 19,0 C 10,8 C 41 % 43 % 1006,6 hPa 0,0 l/m 25,4 km/h (4 Bft) S-SO 150 0 min
02.05.2018 17:25 18,4 C 19,0 C 10,8 C 41 % 44 % 1006,6 hPa 0,0 l/m 25,4 km/h (4 Bft) S-SO 150 0 min
02.05.2018 17:30 18,8 C 19,0 C 10,8 C 42 % 44 % 1006,6 hPa 0,0 l/m 23,6 km/h (4 Bft) SO 125 17 min
02.05.2018 17:35 18,8 C 18,9 C 10,8 C 42 % 44 % 1006,6 hPa 0,0 l/m 23,6 km/h (4 Bft) SO 125 0 min
02.05.2018 17:40 18,8 C 19,0 C 10,8 C 42 % 44 % 1006,6 hPa 0,0 l/m 23,6 km/h (4 Bft) SO 125 0 min
02.05.2018 17:45 18,8 C 18,9 C 10,8 C 42 % 43 % 1006,6 hPa 0,0 l/m 23,6 km/h (4 Bft) SO 125 0 min
02.05.2018 17:50 18,8 C 18,8 C 10,8 C 42 % 44 % 1005,6 hPa 0,0 l/m 23,6 km/h (4 Bft) SO 125 0 min
02.05.2018 17:55 18,8 C 18,8 C 10,8 C 42 % 43 % 1005,6 hPa 0,0 l/m 23,6 km/h (4 Bft) SO 125 0 min
02.05.2018 18:00 18,5 C 18,8 C 10,8 C 41 % 43 % 1005,6 hPa 0,0 l/m 27,1 km/h (5 Bft) S-SO 160 30 min
02.05.2018 18:05 18,4 C 18,7 C 10,8 C 40 % 43 % 1006,6 hPa 0,0 l/m 20,6 km/h (4 Bft) SO 140 8 min
02.05.2018 18:10 18,4 C 18,6 C 10,8 C 41 % 43 % 1006,6 hPa 0,0 l/m 23,6 km/h (4 Bft) S 185 4 min
02.05.2018 18:15 18,5 C 18,6 C 10,8 C 41 % 43 % 1006,6 hPa 0,0 l/m 21,8 km/h (4 Bft) SO 140 5 min
02.05.2018 18:20 18,3 C 18,6 C 10,8 C 41 % 43 % 1006,6 hPa 0,0 l/m 23,6 km/h (4 Bft) SO 145 3 min
02.05.2018 18:25 18,3 C 18,5 C 10,8 C 41 % 43 % 1006,6 hPa 0,0 l/m 23,6 km/h (4 Bft) SO 145 0 min
02.05.2018 18:30 17,8 C 18,4 C 10,8 C 42 % 44 % 1006,7 hPa 0,0 l/m 20,0 km/h (4 Bft) S 185 12 min
02.05.2018 18:35 17,8 C 18,3 C 10,8 C 42 % 45 % 1006,7 hPa 0,0 l/m 20,0 km/h (4 Bft) S 185 0 min
02.05.2018 18:40 17,8 C 18,2 C 10,8 C 43 % 45 % 1006,7 hPa 0,0 l/m 20,0 km/h (4 Bft) S-SO 165 6 min
02.05.2018 18:45 17,7 C 18,1 C 10,8 C 43 % 45 % 1006,7 hPa 0,0 l/m 16,3 km/h (3 Bft) S 180 0 min
02.05.2018 18:50 17,7 C 18,0 C 10,8 C 44 % 46 % 1006,7 hPa 0,0 l/m 16,3 km/h (3 Bft) S-SO 150 0 min
02.05.2018 18:55 17,7 C 18,0 C 10,8 C 43 % 45 % 1006,7 hPa 0,0 l/m 16,3 km/h (3 Bft) SO 145 0 min
02.05.2018 19:00 17,7 C 17,8 C 10,8 C 43 % 45 % 1006,7 hPa 0,0 l/m 21,2 km/h (4 Bft) S-SO 165 0 min
02.05.2018 19:05 17,7 C 17,8 C 10,8 C 43 % 46 % 1006,7 hPa 0,0 l/m 21,2 km/h (4 Bft) S-SO 165 0 min
02.05.2018 19:10 17,5 C 17,7 C 10,8 C 44 % 46 % 1006,7 hPa 0,0 l/m 16,9 km/h (3 Bft) SO 130 1 min
02.05.2018 19:15 17,5 C 17,7 C 10,8 C 44 % 46 % 1006,7 hPa 0,0 l/m 20,6 km/h (4 Bft) S-SO 155 1 min
02.05.2018 19:20 17,5 C 17,7 C 10,8 C 44 % 47 % 1006,7 hPa 0,0 l/m 20,6 km/h (4 Bft) S-SO 155 0 min
02.05.2018 19:25 17,5 C 17,7 C 10,8 C 44 % 47 % 1006,7 hPa 0,0 l/m 20,6 km/h (4 Bft) S-SO 155 0 min
02.05.2018 19:30 17,4 C 17,6 C 10,8 C 45 % 47 % 1006,7 hPa 0,0 l/m 13,9 km/h (3 Bft) S-SO 160 0 min
02.05.2018 19:35 17,4 C 17,6 C 10,8 C 45 % 47 % 1006,7 hPa 0,0 l/m 13,9 km/h (3 Bft) S-SO 160 0 min
02.05.2018 19:40 17,3 C 17,5 C 10,8 C 45 % 47 % 1006,7 hPa 0,0 l/m 20,0 km/h (4 Bft) SO 135 0 min
02.05.2018 19:45 17,3 C 17,5 C 10,8 C 45 % 47 % 1006,7 hPa 0,0 l/m 23,0 km/h (4 Bft) O-SO 120 0 min
02.05.2018 19:50 17,1 C 17,4 C 10,8 C 45 % 47 % 1006,7 hPa 0,0 l/m 16,9 km/h (3 Bft) SO 145 0 min
02.05.2018 19:55 17,0 C 17,4 C 10,8 C 45 % 47 % 1006,7 hPa 0,0 l/m 20,0 km/h (4 Bft) SO 145 0 min
02.05.2018 20:00 17,0 C 17,2 C 10,8 C 45 % 47 % 1006,7 hPa 0,0 l/m 17,6 km/h (3 Bft) O-SO 120 0 min
02.05.2018 20:05 16,9 C 17,2 C 10,8 C 45 % 47 % 1006,7 hPa 0,0 l/m 23,6 km/h (4 Bft) SO 130 0 min
02.05.2018 20:10 16,9 C 17,1 C 10,8 C 46 % 48 % 1006,7 hPa 0,0 l/m 15,1 km/h (3 Bft) S-SO 150 0 min
02.05.2018 20:15 16,9 C 17,1 C 10,8 C 45 % 48 % 1006,7 hPa 0,0 l/m 18,8 km/h (3 Bft) S 185 0 min
02.05.2018 20:20 16,9 C 17,1 C 10,8 C 45 % 48 % 1007,7 hPa 0,0 l/m 19,4 km/h (3 Bft) SO 135 0 min
02.05.2018 20:25 16,8 C 17,0 C 10,8 C 46 % 48 % 1007,7 hPa 0,0 l/m 15,7 km/h (3 Bft) S 180 0 min
02.05.2018 20:30 16,8 C 16,9 C 10,8 C 46 % 48 % 1007,7 hPa 0,0 l/m 15,7 km/h (3 Bft) S 180 0 min
02.05.2018 20:35 16,6 C 16,8 C 10,8 C 46 % 48 % 1006,7 hPa 0,0 l/m 14,5 km/h (3 Bft) SO 140 0 min
02.05.2018 20:40 16,6 C 16,8 C 10,8 C 46 % 48 % 1006,7 hPa 0,0 l/m 14,5 km/h (3 Bft) SO 140 0 min
02.05.2018 20:45 16,4 C 16,6 C 10,8 C 47 % 49 % 1006,7 hPa 0,0 l/m 9,7 km/h (2 Bft) SO 145 0 min
02.05.2018 20:50 16,3 C 16,6 C 10,8 C 47 % 48 % 1006,7 hPa 0,0 l/m 9,1 km/h (2 Bft) SO 145 0 min
02.05.2018 20:55 16,3 C 16,4 C 10,8 C 47 % 48 % 1006,7 hPa 0,0 l/m 9,1 km/h (2 Bft) SO 145 0 min
02.05.2018 21:00 16,3 C 16,4 C 10,8 C 47 % 49 % 1006,7 hPa 0,0 l/m 9,1 km/h (2 Bft) SO 145 0 min
02.05.2018 21:05 16,3 C 16,2 C 10,8 C 47 % 49 % 1006,7 hPa 0,0 l/m 9,1 km/h (2 Bft) SO 145 0 min
02.05.2018 21:10 16,3 C 16,2 C 10,8 C 47 % 49 % 1006,7 hPa 0,0 l/m 9,1 km/h (2 Bft) SO 145 0 min
02.05.2018 21:15 16,3 C 16,0 C 10,8 C 47 % 49 % 1006,7 hPa 0,0 l/m 9,1 km/h (2 Bft) SO 145 0 min
02.05.2018 21:20 16,3 C 15,8 C 10,8 C 47 % 50 % 1007,7 hPa 0,0 l/m 9,1 km/h (2 Bft) SO 145 0 min
02.05.2018 21:25 16,3 C 15,8 C 10,8 C 47 % 50 % 1007,7 hPa 0,0 l/m 9,1 km/h (2 Bft) SO 145 0 min
02.05.2018 21:30 16,3 C 15,7 C 10,8 C 47 % 51 % 1007,7 hPa 0,0 l/m 9,1 km/h (2 Bft) SO 145 0 min
02.05.2018 21:35 16,3 C 15,6 C 10,8 C 47 % 51 % 1006,7 hPa 0,0 l/m 9,1 km/h (2 Bft) SO 145 0 min
02.05.2018 21:40 16,3 C 15,5 C 10,8 C 47 % 51 % 1006,7 hPa 0,0 l/m 9,1 km/h (2 Bft) SO 145 0 min
02.05.2018 21:45 16,3 C 15,4 C 10,8 C 47 % 52 % 1006,7 hPa 0,0 l/m 9,1 km/h (2 Bft) SO 145 0 min
02.05.2018 21:50 16,3 C 15,3 C 10,8 C 47 % 53 % 1008,7 hPa 0,0 l/m 9,1 km/h (2 Bft) SO 145 0 min
02.05.2018 21:55 16,3 C 15,1 C 10,8 C 47 % 54 % 1008,7 hPa 0,0 l/m 9,1 km/h (2 Bft) SO 145 0 min
02.05.2018 22:00 16,3 C 14,9 C 10,8 C 47 % 55 % 1008,7 hPa 0,0 l/m 9,1 km/h (2 Bft) SO 145 0 min
02.05.2018 22:05 16,3 C 14,7 C 10,8 C 47 % 56 % 1008,7 hPa 0,0 l/m 9,1 km/h (2 Bft) SO 145 0 min
02.05.2018 22:10 16,3 C 14,6 C 10,8 C 47 % 56 % 1008,7 hPa 0,0 l/m 9,1 km/h (2 Bft) SO 145 0 min
02.05.2018 22:15 16,3 C 14,3 C 10,8 C 47 % 59 % 1008,7 hPa 0,0 l/m 9,1 km/h (2 Bft) SO 145 0 min
02.05.2018 22:20 16,3 C 13,9 C 10,8 C 47 % 59 % 1008,7 hPa 0,0 l/m 9,1 km/h (2 Bft) SO 145 0 min
02.05.2018 22:25 16,3 C 13,9 C 10,8 C 47 % 59 % 1008,7 hPa 0,0 l/m 9,1 km/h (2 Bft) SO 145 0 min
02.05.2018 22:30 16,3 C 13,8 C 10,8 C 47 % 61 % 1008,7 hPa 0,0 l/m 9,1 km/h (2 Bft) SO 145 0 min
02.05.2018 22:35 16,3 C 13,6 C 10,8 C 47 % 60 % 1007,7 hPa 0,0 l/m 9,1 km/h (2 Bft) SO 145 0 min
02.05.2018 22:40 16,3 C 13,7 C 10,8 C 47 % 60 % 1007,7 hPa 0,0 l/m 9,1 km/h (2 Bft) SO 145 0 min
02.05.2018 22:45 16,3 C 13,7 C 10,8 C 47 % 60 % 1007,7 hPa 0,0 l/m 9,1 km/h (2 Bft) SO 145 0 min
02.05.2018 22:50 16,3 C 13,6 C 10,8 C 47 % 60 % 1008,7 hPa 0,0 l/m 9,1 km/h (2 Bft) SO 145 0 min
02.05.2018 22:55 16,3 C 13,6 C 10,8 C 47 % 60 % 1008,7 hPa 0,0 l/m 9,1 km/h (2 Bft) SO 145 0 min
02.05.2018 23:00 16,3 C 13,6 C 10,8 C 47 % 60 % 1008,7 hPa 0,0 l/m 9,1 km/h (2 Bft) SO 145 0 min
02.05.2018 23:05 16,3 C 13,6 C 10,8 C 47 % 61 % 1008,7 hPa 0,0 l/m 9,1 km/h (2 Bft) SO 145 0 min
02.05.2018 23:10 16,3 C 13,4 C 10,8 C 47 % 63 % 1008,7 hPa 0,0 l/m 9,1 km/h (2 Bft) SO 145 0 min
02.05.2018 23:15 16,3 C 13,2 C 10,8 C 47 % 63 % 1008,7 hPa 0,0 l/m 9,1 km/h (2 Bft) SO 145 0 min
02.05.2018 23:20 16,3 C 13,2 C 10,8 C 47 % 62 % 1008,7 hPa 0,0 l/m 9,1 km/h (2 Bft) SO 145 0 min
02.05.2018 23:25 16,3 C 13,3 C 10,8 C 47 % 62 % 1008,7 hPa 0,0 l/m 9,1 km/h (2 Bft) SO 145 0 min
02.05.2018 23:30 16,3 C 13,2 C 10,8 C 47 % 63 % 1008,7 hPa 0,0 l/m 9,1 km/h (2 Bft) SO 145 0 min
02.05.2018 23:35 16,3 C 13,2 C 10,8 C 47 % 63 % 1008,7 hPa 0,0 l/m 9,1 km/h (2 Bft) SO 145 0 min
02.05.2018 23:40 16,3 C 13,3 C 10,8 C 47 % 62 % 1008,7 hPa 0,0 l/m 9,1 km/h (2 Bft) SO 145 0 min
02.05.2018 23:45 16,3 C 13,4 C 10,8 C 47 % 61 % 1008,7 hPa 0,0 l/m 9,1 km/h (2 Bft) SO 145 0 min
02.05.2018 23:50 16,3 C 13,4 C 10,8 C 47 % 62 % 1008,7 hPa 0,0 l/m 9,1 km/h (2 Bft) SO 145 0 min
02.05.2018 23:55 16,3 C 13,3 C 10,8 C 47 % 63 % 1008,7 hPa 0,0 l/m 9,1 km/h (2 Bft) SO 145 0 min
_ Min-Zeit 06:10 06:15 00:00 18:05 16:45 17:50 - 06:00 - - -
Minimum _ 5,1 C 5,1 C 10,8 C 40 % 43 % 1005,6 hPa - 3,0 km/h (1 Bft) - - -
_ Max-Zeit 17:30 17:10 00:00 06:15 06:15 06:00 00:00 12:45 - - 09:30
Maximum _ 18,8 C 19,0 C 10,8 C 85 % 84 % 1011,8 hPa 0,0 l/m 28,6 km/h
S (5 Bft)
- - 30 min
Durchschnitt _ 13,4 C 12,4 C 10,8 C 56 % 62 % 1009,5 hPa #0,0 l/m 13,9 km/h (3 Bft) SO - #10:53 h